Location: Altleiningen
(49.5078°N, 8.0741°E)
Time: 11:53:47
(UTC+00:00)

Meteor 1-23 Rocket - Pass Details

Date: 03 March 2021
Orbit: 837 x 888 km, 81.3° (Epoch: 13 April)

Event Time Altitude Azimuth Distance (km) Brightness Sun altitude
Rises 19:20:56 0° 349° (N) 3,406 7.7 -21.2°
Reaches altitude 10° 19:23:22 10° 353° (N) 2,470 6.9 -21.6°
Maximum altitude 19:28:56 65° 75° (ENE) 930 4.1 -22.5°
Enters shadow 19:30:20 48° 133° (SE) 1,096 4.4 -22.7°
